Regional Weather Roundup
Issued by NWS Sioux Falls, SD

Home | Current Version | Previous Version | Graphics & Text | Print | Product List | Glossary Off
Versions: 1 2 3 4 5 6 7 8 9 10 11 12 13 14 15 16 17 18 19 20 21 22 23 24 25 26 27 28 29 30 31 32 33 34 35 36 37 38 39 40 41 42 43 44 45 46 47 48 49 50

000
ASUS43 KFSD 160310
RWRFSD

WEATHER ROUNDUP FOR SE SOUTH DAKOTA/SW MINNESOTA/NW IOWA
NATIONAL WEATHER SERVICE SIOUX FALLS SD
1000 PM CDT TUE AUG 15 2017

NOTE: "FAIR" INDICATES FEW OR NO CLOUDS BELOW 12,000 FEET WITH NO
SIGNIFICANT WEATHER AND OR OBSTRUCTIONS TO VISIBILITY.


SDZ038>040-050-052>070-160400-
SOUTHEAST SOUTH DAKOTA

CITY           SKY/WX    TMP DP  RH WIND       PRES   REMARKS
BROOKINGS      CLOUDY    65  62  90 SE13      29.86F
CHAMBERLAIN    CLOUDY    68  68 100 E12       29.80F
HURON          CLOUDY    68  64  87 SE14G22   29.84R
MADISON        CLOUDY    64  64 100 SE14      29.87S
MITCHELL       CLOUDY    67  65  93 SE10      29.84R
SIOUX FALLS    CLOUDY    67  65  93 SE12      29.86S
WINNER         MOCLDY    71  66  84 SE10      29.80S
YANKTON        CLOUDY    67  66  97 NE10      29.80F
$$

MNZ071-072-080-081-089-090-097-098-160400-
SOUTHWEST MINNESOTA

CITY           SKY/WX    TMP DP  RH WIND       PRES   REMARKS
FAIRMONT       LGT RAIN  66  63  90 SE8       29.92R
JACKSON        LGT SNOW  64  63  94 SE8       29.91S
LUVERNE        CLOUDY    64  61  88 SE8       29.89R
MARSHALL       CLOUDY    65  62  90 SE9       29.90R
MONTEVIDEO     MOCLDY    64  63  94 S6        29.91R
PIPESTONE      CLOUDY    66  63  88 SE10      29.89S
REDWOOD FALLS  MOCLDY    66  61  84 SE8       29.90R
TRACY          CLOUDY    65  64  94 SE7       29.91R
WINDOM         CLOUDY    64  63  94 E8        29.91R
WORTHINGTON    CLOUDY    64  63  96 SE9       29.91R
$$

IAZ001>003-012>014-020>022-031-032-NEZ013-014-SDZ071-160400-
NORTHWEST IOWA

CITY           SKY/WX    TMP DP  RH WIND       PRES   REMARKS
CHEROKEE       DRIZZLE   67  67 100 S9        29.86F
DENISON        LGT RAIN  68  66  94 E8        29.92F
ESTHERVILLE    LGT RAIN  64  64 100 E7        29.91R
LE MARS        CLOUDY    68  66  94 E5        29.85S
ORANGE CITY    CLOUDY    66  66 100 E7        29.87R
SHELDON        CLOUDY    66  64  94 SE8       29.87R
SIOUX CITY     CLOUDY    67  67 100 S8        29.85S
SPENCER        CLOUDY    66  65  96 SE9       29.91R
STORM LAKE     CLOUDY    66  66 100 S14G24    29.89S FOG
$$

ABBREVIATIONS USED IN REMARKS
   TC - TEMPERATURE IN CELSIUS
  WCI - WIND CHILL INDEX
   HX - HEAT INDEX
  VSB - VISIBILITY




USA.gov is the U.S. government's official web portal to all federal, state and local government web resources and services.